Location: R�o Medio
(42.4667°N, 3.0167°W)
Time: 08:22:47
(UTC+00:00)

APEX - Pass Details

Date: 27 February 2020
Orbit: 330 x 1120 km, 69.9° (Epoch: 31 March)

Event Time Altitude Azimuth Distance (km) Brightness Sun altitude
Rises 19:36:21 0° 198° (SSW) 2,884 7.2 -18.8°
Reaches altitude 10° 19:38:23 10° 197° (SSW) 2,094 6.4 -19.1°
Maximum altitude 19:43:10 74° 113° (ESE) 824 3.9 -20.0°
Drops below altitude 10° 19:49:16 10° 29° (NNE) 2,644 6.6 -21.1°
Sets 19:52:05 0° 28° (NNE) 3,702 7.3 -21.6°
